Radiation Dose at Monitoring Post of Fukushima Daini Nuclear Power Station
Date,Time,MP-1(microSv/h),MP-2(microSv/h),MP-3(microSv/h),MP-4(microSv/h),MP-5(microSv/h),MP-6(microSv/h),MP-7(microSv/h),Wind Direction,Wind Velocity(m/s),Rain
2020/10/09,00:00,0.173,0.156,0.248,0.237,0.240,0.136,0.084,north-northwest,6.9,No
2020/10/09,00:10,0.173,0.155,0.248,0.236,0.242,0.136,0.083,north-northwest,6.5,Yes
2020/10/09,00:20,0.172,0.156,0.249,0.236,0.240,0.136,0.083,north-northwest,8.2,Yes
2020/10/09,00:30,0.173,0.156,0.248,0.238,0.242,0.136,0.083,north-northwest,7.2,No
2020/10/09,00:40,0.172,0.156,0.251,0.236,0.240,0.135,0.083,north-northwest,7.7,No
2020/10/09,00:50,0.172,0.156,0.247,0.235,0.240,0.136,0.082,northwest,7.3,No
2020/10/09,01:00,0.172,0.156,0.250,0.237,0.240,0.134,0.082,northwest,7.3,No
2020/10/09,01:10,0.172,0.155,0.248,0.235,0.240,0.135,0.082,northwest,7.0,No
2020/10/09,01:20,0.171,0.156,0.249,0.236,0.241,0.134,0.082,northwest,7.5,No
2020/10/09,01:30,0.171,0.155,0.249,0.234,0.239,0.134,0.081,north-northwest,8.1,No
2020/10/09,01:40,0.172,0.155,0.248,0.235,0.241,0.134,0.082,northwest,7.7,No
2020/10/09,01:50,0.172,0.155,0.248,0.236,0.239,0.135,0.082,north-northwest,7.8,No
2020/10/09,02:00,0.172,0.154,0.247,0.235,0.241,0.134,0.082,north-northwest,7.6,No
2020/10/09,02:10,0.171,0.156,0.249,0.235,0.239,0.135,0.081,north-northwest,8.7,No
2020/10/09,02:20,0.172,0.155,0.248,0.234,0.240,0.134,0.082,north-northwest,8.7,No
2020/10/09,02:30,0.172,0.155,0.248,0.235,0.239,0.134,0.081,north-northwest,8.2,No
2020/10/09,02:40,0.172,0.154,0.249,0.235,0.240,0.135,0.081,north-northwest,8.1,No
2020/10/09,02:50,0.172,0.155,0.248,0.235,0.240,0.133,0.081,north-northwest,8.4,No
2020/10/09,03:00,0.171,0.155,0.249,0.236,0.240,0.134,0.081,northwest,7.8,No
2020/10/09,03:10,0.171,0.155,0.249,0.235,0.240,0.134,0.081,north-northwest,8.1,No
2020/10/09,03:20,0.172,0.156,0.248,0.236,0.239,0.134,0.082,north-northwest,8.1,No
2020/10/09,03:30,0.172,0.154,0.250,0.235,0.241,0.134,0.082,north-northwest,7.3,No
2020/10/09,03:40,0.172,0.155,0.248,0.236,0.237,0.134,0.082,north-northwest,7.6,No
2020/10/09,03:50,0.172,0.155,0.250,0.237,0.240,0.134,0.081,northwest,8.7,No
2020/10/09,04:00,0.172,0.155,0.248,0.235,0.238,0.134,0.081,northwest,9.0,No
2020/10/09,04:10,0.171,0.156,0.248,0.236,0.240,0.134,0.082,north-northwest,8.7,No
2020/10/09,04:20,0.172,0.154,0.250,0.235,0.239,0.134,0.080,north-northwest,8.8,No
2020/10/09,04:30,0.171,0.156,0.248,0.236,0.238,0.134,0.081,northwest,9.0,No
2020/10/09,04:40,0.172,0.155,0.249,0.238,0.242,0.133,0.082,northwest,9.2,No
2020/10/09,04:50,0.172,0.155,0.248,0.236,0.240,0.134,0.082,northwest,8.7,No
2020/10/09,05:00,0.171,0.155,0.249,0.236,0.240,0.134,0.082,north-northwest,9.0,No
2020/10/09,05:10,0.173,0.155,0.250,0.236,0.239,0.135,0.081,north-northwest,8.8,No
2020/10/09,05:20,0.172,0.155,0.248,0.235,0.241,0.134,0.081,north-northwest,9.2,No
2020/10/09,05:30,0.172,0.155,0.250,0.236,0.240,0.134,0.081,north-northwest,8.4,No
2020/10/09,05:40,0.173,0.155,0.248,0.236,0.241,0.134,0.082,north-northwest,8.4,No
2020/10/09,05:50,0.172,0.156,0.251,0.236,0.241,0.135,0.082,northwest,7.9,No
2020/10/09,06:00,0.171,0.156,0.250,0.235,0.240,0.135,0.081,north-northwest,8.8,No
2020/10/09,06:10,0.172,0.156,0.248,0.236,0.242,0.134,0.082,north-northwest,8.3,No
2020/10/09,06:20,0.173,0.156,0.250,0.235,0.240,0.135,0.082,north-northwest,8.1,No
2020/10/09,06:30,0.173,0.155,0.249,0.235,0.242,0.134,0.081,north-northwest,7.9,No
2020/10/09,06:40,0.173,0.155,0.250,0.237,0.240,0.135,0.082,north-northwest,7.6,No
2020/10/09,06:50,0.171,0.156,0.248,0.236,0.242,0.135,0.082,north-northwest,7.9,No
2020/10/09,07:00,0.174,0.156,0.250,0.236,0.239,0.134,0.080,north-northwest,8.2,No
2020/10/09,07:10,0.172,0.155,0.249,0.236,0.242,0.135,0.082,north-northwest,7.7,No
2020/10/09,07:20,0.173,0.155,0.250,0.236,0.240,0.134,0.082,north-northwest,7.3,No
2020/10/09,07:30,0.172,0.156,0.250,0.237,0.241,0.135,0.081,north,7.7,No
2020/10/09,07:40,0.173,0.155,0.248,0.235,0.240,0.135,0.081,north-northwest,8.1,No
2020/10/09,07:50,0.173,0.157,0.249,0.238,0.241,0.134,0.082,north-northwest,7.4,No
2020/10/09,08:00,0.173,0.155,0.249,0.236,0.239,0.135,0.081,north-northwest,7.3,No
2020/10/09,08:10,0.173,0.157,0.250,0.237,0.242,0.136,0.082,north-northwest,7.1,No
2020/10/09,08:20,0.173,0.155,0.248,0.236,0.240,0.135,0.081,north-northwest,8.2,No
2020/10/09,08:30,0.173,0.155,0.249,0.238,0.241,0.135,0.082,north-northwest,7.6,No
2020/10/09,08:40,0.172,0.155,0.249,0.236,0.240,0.134,0.082,north-northwest,7.7,No
2020/10/09,08:50,0.173,0.156,0.249,0.237,0.242,0.135,0.081,north-northwest,7.4,No
2020/10/09,09:00,0.172,0.156,0.252,0.237,0.240,0.135,0.082,north-northwest,6.8,No
2020/10/09,09:10,0.173,0.156,0.250,0.237,0.242,0.135,0.082,north-northwest,6.0,No
2020/10/09,09:20,0.172,0.156,0.251,0.238,0.240,0.134,0.082,north-northwest,7.0,No
2020/10/09,09:30,0.173,0.154,0.250,0.236,0.241,0.136,0.082,north,6.4,No
2020/10/09,09:40,0.173,0.155,0.250,0.237,0.240,0.135,0.082,north-northwest,5.5,No
2020/10/09,09:50,0.173,0.154,0.249,0.236,0.242,0.135,0.082,north-northwest,7.4,No
2020/10/09,10:00,0.173,0.156,0.249,0.237,0.240,0.135,0.082,north-northwest,6.0,No
2020/10/09,10:10,0.173,0.155,0.250,0.237,0.240,0.135,0.081,north-northwest,5.9,No
2020/10/09,10:20,0.173,0.156,0.250,0.238,0.241,0.134,0.082,north-northwest,6.1,No
2020/10/09,10:30,0.173,0.156,0.250,0.236,0.241,0.135,0.082,north-northwest,5.8,No
2020/10/09,10:40,0.173,0.155,0.249,0.238,0.241,0.134,0.082,north-northwest,6.5,No
2020/10/09,10:50,0.172,0.156,0.251,0.236,0.241,0.135,0.082,north-northwest,4.6,No
2020/10/09,11:00,0.173,0.155,0.248,0.238,0.240,0.135,0.082,north-northwest,4.6,No
2020/10/09,11:10,0.173,0.157,0.251,0.236,0.241,0.135,0.081,north,3.9,No
2020/10/09,11:20,0.173,0.155,0.248,0.237,0.241,0.135,0.081,north-northwest,5.1,No
2020/10/09,11:30,0.173,0.155,0.251,0.236,0.241,0.135,0.082,north,4.7,No
2020/10/09,11:40,0.172,0.156,0.248,0.237,0.239,0.136,0.081,north,4.5,No
2020/10/09,11:50,0.172,0.156,0.251,0.236,0.242,0.135,0.082,north-northeast,4.8,No
2020/10/09,12:00,0.173,0.155,0.249,0.236,0.239,0.135,0.082,north-northeast,5.6,No
2020/10/09,12:10,0.173,0.156,0.250,0.236,0.242,0.135,0.081,northeast,6.3,No
2020/10/09,12:20,0.172,0.154,0.248,0.236,0.239,0.136,0.082,northeast,6.0,No
2020/10/09,12:30,0.173,0.156,0.250,0.236,0.241,0.134,0.081,north-northeast,5.6,No
2020/10/09,12:40,0.171,0.155,0.248,0.237,0.241,0.135,0.081,northeast,6.3,No
2020/10/09,12:50,0.173,0.156,0.250,0.235,0.241,0.135,0.081,northeast,6.6,No
2020/10/09,13:00,0.172,0.154,0.249,0.237,0.240,0.135,0.081,north-northeast,6.6,No
2020/10/09,13:10,0.173,0.157,0.250,0.235,0.240,0.135,0.081,northeast,6.3,No
2020/10/09,13:20,0.172,0.155,0.248,0.237,0.240,0.135,0.081,northeast,7.3,No
2020/10/09,13:30,0.173,0.156,0.251,0.237,0.240,0.135,0.081,northeast,6.4,No
2020/10/09,13:40,0.172,0.154,0.249,0.237,0.241,0.135,0.081,northeast,6.1,No
2020/10/09,13:50,0.173,0.157,0.251,0.237,0.239,0.135,0.082,northeast,4.8,No
2020/10/09,14:00,0.172,0.155,0.248,0.237,0.240,0.134,0.081,northeast,7.1,No
2020/10/09,14:10,0.172,0.156,0.250,0.236,0.240,0.136,0.082,northeast,5.9,No
2020/10/09,14:20,0.173,0.156,0.249,0.237,0.242,0.135,0.081,east-northeast,6.3,No
2020/10/09,14:30,0.173,0.155,0.251,0.236,0.239,0.135,0.082,northeast,6.2,No
2020/10/09,14:40,0.172,0.156,0.248,0.238,0.241,0.134,0.081,east-northeast,7.3,No
2020/10/09,14:50,0.173,0.156,0.251,0.236,0.240,0.136,0.081,east-northeast,7.0,No
2020/10/09,15:00,0.173,0.156,0.249,0.239,0.241,0.134,0.080,east-northeast,6.7,No
2020/10/09,15:10,0.173,0.157,0.251,0.237,0.240,0.136,0.081,northeast,6.4,No
2020/10/09,15:20,0.173,0.155,0.249,0.237,0.240,0.135,0.081,northeast,6.4,No
2020/10/09,15:30,0.173,0.156,0.251,0.236,0.241,0.135,0.081,northeast,6.3,No
2020/10/09,15:40,0.173,0.156,0.250,0.238,0.240,0.135,0.081,east-northeast,6.4,No
2020/10/09,15:50,0.173,0.156,0.251,0.236,0.241,0.136,0.081,northeast,6.8,No
2020/10/09,16:00,0.173,0.155,0.250,0.237,0.240,0.135,0.081,east-northeast,5.3,No
2020/10/09,16:10,0.173,0.155,0.251,0.236,0.242,0.136,0.081,northeast,5.3,No
2020/10/09,16:20,0.173,0.156,0.249,0.238,0.239,0.135,0.081,east-northeast,6.1,No
2020/10/09,16:30,0.173,0.156,0.251,0.237,0.241,0.135,0.082,east-northeast,6.9,No
2020/10/09,16:40,0.173,0.157,0.250,0.238,0.240,0.134,0.081,east-northeast,4.6,No
2020/10/09,16:50,0.172,0.156,0.251,0.235,0.242,0.135,0.082,northeast,4.8,No
2020/10/09,17:00,0.173,0.157,0.250,0.239,0.240,0.135,0.082,northeast,5.0,No
2020/10/09,17:10,0.172,0.155,0.250,0.236,0.243,0.136,0.082,northeast,4.5,No
2020/10/09,17:20,0.174,0.157,0.249,0.239,0.240,0.135,0.081,northeast,4.7,No
2020/10/09,17:30,0.173,0.156,0.251,0.236,0.241,0.136,0.081,north-northeast,5.6,No
2020/10/09,17:40,0.174,0.156,0.250,0.238,0.241,0.135,0.082,northeast,5.3,No
2020/10/09,17:50,0.173,0.156,0.251,0.238,0.241,0.135,0.081,northeast,4.5,No
2020/10/09,18:00,0.174,0.157,0.250,0.239,0.239,0.134,0.081,northeast,5.4,No
2020/10/09,18:10,0.172,0.157,0.251,0.236,0.242,0.135,0.080,north-northeast,5.7,No
2020/10/09,18:20,0.175,0.157,0.249,0.237,0.240,0.136,0.081,northeast,3.9,No
2020/10/09,18:30,0.173,0.156,0.250,0.237,0.241,0.136,0.081,northeast,4.6,No
2020/10/09,18:40,0.174,0.157,0.249,0.238,0.240,0.135,0.081,northeast,3.8,No
2020/10/09,18:50,0.173,0.157,0.249,0.237,0.242,0.135,0.081,east-northeast,3.9,No
2020/10/09,19:00,0.175,0.156,0.250,0.237,0.241,0.135,0.082,northeast,4.9,No
2020/10/09,19:10,0.172,0.157,0.252,0.238,0.242,0.136,0.081,east-northeast,5.4,No
2020/10/09,19:20,0.173,0.156,0.252,0.237,0.240,0.135,0.081,northeast,5.4,No
2020/10/09,19:30,0.174,0.157,0.251,0.238,0.243,0.135,0.080,northeast,3.7,No
2020/10/09,19:40,0.174,0.157,0.251,0.238,0.241,0.135,0.081,northeast,3.3,No
2020/10/09,19:50,0.172,0.157,0.249,0.240,0.242,0.136,0.081,northeast,3.1,No
2020/10/09,20:00,0.174,0.156,0.251,0.238,0.242,0.135,0.081,north,2.3,No
2020/10/09,20:10,0.172,0.157,0.251,0.237,0.241,0.136,0.081,north-northeast,3.1,No
2020/10/09,20:20,0.175,0.157,0.251,0.239,0.240,0.135,0.082,northeast,3.6,No
2020/10/09,20:30,0.173,0.156,0.250,0.238,0.242,0.135,0.081,north-northeast,3.3,No
2020/10/09,20:40,0.173,0.155,0.250,0.238,0.240,0.135,0.081,north-northeast,4.3,No
2020/10/09,20:50,0.173,0.156,0.251,0.236,0.243,0.136,0.082,north,2.3,No
2020/10/09,21:00,0.174,0.156,0.251,0.239,0.240,0.135,0.081,north,2.8,No
2020/10/09,21:10,0.173,0.156,0.251,0.237,0.242,0.136,0.082,north,3.7,No
2020/10/09,21:20,0.175,0.157,0.251,0.239,0.240,0.136,0.081,north-northwest,5.0,No
2020/10/09,21:30,0.173,0.157,0.251,0.238,0.242,0.135,0.082,north-northwest,5.4,No
2020/10/09,21:40,0.175,0.156,0.250,0.237,0.242,0.135,0.082,north,4.8,No
2020/10/09,21:50,0.173,0.156,0.252,0.238,0.244,0.136,0.082,north-northwest,4.9,No
2020/10/09,22:00,0.175,0.157,0.250,0.238,0.240,0.136,0.082,north-northwest,4.4,No
2020/10/09,22:10,0.173,0.156,0.251,0.237,0.243,0.135,0.082,north-northwest,5.7,No
2020/10/09,22:20,0.174,0.156,0.250,0.238,0.241,0.136,0.082,north,4.5,No
2020/10/09,22:30,0.173,0.157,0.253,0.238,0.243,0.136,0.082,north-northwest,5.8,No
2020/10/09,22:40,0.175,0.157,0.251,0.237,0.239,0.136,0.082,north,5.3,No
2020/10/09,22:50,0.175,0.156,0.251,0.238,0.243,0.136,0.082,north-northwest,4.9,No
2020/10/09,23:00,0.174,0.156,0.251,0.238,0.240,0.136,0.082,north,4.2,No
2020/10/09,23:10,0.172,0.157,0.251,0.239,0.242,0.136,0.082,north-northwest,4.8,No
2020/10/09,23:20,0.175,0.156,0.251,0.238,0.241,0.136,0.082,north-northwest,5.1,No
2020/10/09,23:30,0.173,0.157,0.251,0.239,0.243,0.136,0.081,north-northwest,5.3,No
2020/10/09,23:40,0.175,0.156,0.251,0.237,0.241,0.136,0.082,north,5.7,No
2020/10/09,23:50,0.173,0.156,0.250,0.238,0.243,0.136,0.082,north-northwest,4.8,No
